Regional Weather Roundup
Issued by NWS Wakefield, VA

Home | Current Version | Previous Version | Graphics & Text | Print | Product List | Glossary On
Versions: 1 2 3 4 5 6 7 8 9 10 11 12 13 14 15 16 17 18 19 20 21 22 23 24 25 26 27 28 29 30 31 32 33 34 35 36 37 38 39 40 41 42 43 44 45 46 47 48 49 50
684
ASUS41 KAKQ 180915
RWRAKQ

REGIONAL WEATHER ROUNDUP
NATIONAL WEATHER SERVICE WAKEFIELD VA
500 AM EDT FRI AUG 18 2017

Note: "fair" indicates few or no clouds below 12,000 feet with no
significant weather and/or obstructions to visibility. * = Denotes
station may not report precipitation (e.g., rain,snow,etc.),
thunder or fog.

VAZ042-051-052>054-056-181000-
NORTHERN VIRGINIA

CITY           SKY/WX    TMP DP  RH WIND       PRES   REMARKS
WASH NATIONAL  MOCLDY    78  76  93 S9        29.86F
DULLES         CLOUDY    76  75  97 S6        29.86F
FORT BELVOIR   CLEAR     76  74  92 S6        29.86F
QUANTICO       MOCLDY    79  77  94 SW10      29.86F
FREDERICKSBRG* CLEAR     75  75 100 S3        29.86S
STAFFORD*      CLOUDY    74  74 100 CALM      29.90F
WARRENTON      CLOUDY    77  73  88 S3        29.86S
CULPEPER*      CLOUDY    76  76  99 S5        29.87F
MANASSAS*      CLOUDY    75  74  96 CALM      29.86F
LEESBURG*      CLOUDY    77  77 100 S5        29.87F
WINCHESTER     CLEAR     72  70  94 CALM      29.87R
FRONT ROYAL*   SUNNY     73  73 100 CALM      29.86S
LURAY*         SUNNY     73  72  94 CALM      29.89S
$$

VAZ048-049-060>072-079>083-181000-
CENTRAL AND SOUTH CENTRAL VIRGINIA

CITY           SKY/WX    TMP DP  RH WIND       PRES   REMARKS
RICHMOND       PTCLDY    75  74  96 S6        29.89S
CHESTERFIELD*  FAIR      74  73  97 SE3       29.90S
PETERSBURG*    PTCLDY    73  73 100 CALM      29.90S
HANOVER        CLEAR     75  72  90 S5        29.90F
TAPPAHANNOCK*  CLEAR     76  76 100 S3        29.90F
QUINTON*       FAIR      75  75 100 S6        29.89F
CHARLOTTSVILLE CLOUDY    76  75  97 S7        29.88S FOG
GORDONSVILLE*  CLOUDY    75  75 100 CALM      29.88S
ORANGE*        CLOUDY    73  73 100 S7        29.88S
LOUISA*        CLOUDY    73  72  94 SW3       29.88S FOG
BUMPASS*       FAIR      74  74 100 CALM      29.88S
FARMVILLE*     CLOUDY    75  73  95 CALM      29.88F
CREWE*         FAIR      73  69  86 CALM      29.89F
FORT PICKETT*  FAIR     N/A N/A N/A S10       29.90F
CHASE CITY*    FAIR      74  74  99 CALM      29.90S
CLARKSVILLE*   FAIR      73  73 100 S3        29.90S
SOUTH HILL*    PTCLDY    72  72 100 S5        29.97S
LAWRENCEVILLE* FAIR      73  72  97 CALM      29.91S
EMPORIA*       CLOUDY    73  73 100 SE6       29.92F
$$

VAZ088>098-181000-
SOUTHEAST VIRGINIA

CITY           SKY/WX    TMP DP  RH WIND       PRES   REMARKS
NORFOLK        CLOUDY    79  76  90 S6        29.92S
VIRGINIA BEACH PTCLDY    77  74  90 S6        29.92S
NORFOLK NAVAL  PTCLDY    80  76  87 S6        29.93S
WEST POINT*    CLOUDY    78  75  91 S6        29.91S
SALUDA*        CLOUDY    77  77 100 S7        29.90S
NEWPORT NEWS   CLOUDY    79  76  90 S8        29.91S
LANGLEY AFB    NOT AVBL
FORT EUSTIS    NOT AVBL
WILLIAMSBURG*  CLOUDY    79  79 100 CALM      29.92S
HR EXEC AP*    FAIR      75  73  94 S6        29.90F
FRANKLIN*      CLOUDY    77  76  96 S8        29.92F
US460-WAKEFLD  CLOUDY    77  77 100 VRB6      29.91S
$$

VAZ020-022-025-037-045-181000-
WEST CENTRAL AND SOUTHWEST VIRGINIA

CITY           SKY/WX    TMP DP  RH WIND       PRES   REMARKS
STAUNTON*      CLEAR     69  68  99 CALM      29.93S
WAYNESBORO*    PTSUNNY   72  72 100 SW3       29.93S
HOT SPRINGS VA CLEAR     68  68 100 W14       30.07R
LYNCHBURG      MOCLDY    74  73  97 CALM      29.92S
DANVILLE       CLOUDY    75  75 100 SW3       29.91S
SOUTH BOSTON*  FAIR      73  72  95 CALM      29.90F
MARTINSVILLE   PTCLDY    71  70  98 CALM      29.95S FOG
ROANOKE        PTCLDY    73  72  96 CALM      29.96S
BLACKSBURG     PTCLDY    70  70  99 CALM      30.02S
DUBLIN*        CLEAR     70  69  97 SW3       30.01S
MARION*        CLOUDY    69  58  67 CALM      30.05S HAZE
HILLSVILLE*    MOCLDY    68  64  86 CALM      30.03S FOG
RICHLANDS*     PTSUNNY   72  66  83 SW6       30.03S
WISE*          PTCLDY    72  72 100 SW12G18   30.03S
ABINGDON*      CLOUDY    71  71 100 CALM      30.01S
$$

MDZ021>025-VAZ099-100-181000-
SOUTHERN MARYLAND AND THE DELMARVA PENINSULA

CITY           SKY/WX    TMP DP  RH WIND       PRES   REMARKS
PATUXENT RIVER MOCLDY    77  75  93 SW7       29.88F
BAY BRIDGE APT CLOUDY    79  75  89 S12       29.86F
LEONARDTOWN    PTCLDY    75  72  88 S5        29.90F
DOVER          PTCLDY    75  75 100 S12       29.87F
GEORGETOWN     CLOUDY    77  74  90 S8        29.91S
EASTON         PTCLDY    77  74  91 S5        29.92F
CAMBRIDGE      CLOUDY    79  75  89 S7        29.89F
SALISBURY      PTCLDY    75  75 100 S6        29.91S
OCEAN CITY     MOCLDY    78  76  93 SW9G18    29.92F
WALLOPS ISLAND CLEAR     77  77 100 S8        29.92F
ACCOMACK*      CLEAR     78  76  93 S8        29.91F
$$

NCZ012>017-030>032-181000-
NORTH CENTRAL AND EASTERN NORTH CAROLINA

CITY           SKY/WX    TMP DP  RH WIND       PRES   REMARKS
ROANOKE RAPIDS FAIR      73  73 100 CALM      29.92S FOG
RALEIGH        PTCLDY    76  74  93 S5        29.92F
ELIZABETH CITY PTCLDY    79  79 100 S7        29.94S
AHOSKIE*         N/A     75  75  99 CALM      29.93S FOG
EDENTON*       CLOUDY    81  78  91 CALM      29.94S
CURRITUCK*     PTCLDY    78  76  92 CALM      29.94F
KILL DEVIL HLS PTCLDY    81  75  82 CALM      29.94S
MANTEO         MOCLDY    82  76  84 SW13      29.95S
CAPE HATTERAS  CLEAR     83  79  88 S12       29.95S
TARBORO*       NOT AVBL
GOLDSBORO      PTCLDY    76  76 100 SE2       29.91F
WASHINGTON     PTCLDY    78  77  96 S3        29.94S
GREENVILLE     CLOUDY    81  79  94 S5        29.95S
NEW BERN       CLEAR     78  78 100 S3        29.95S FOG
WILMINGTON     PTCLDY    80  79  96 S3        29.94R
$$

VAZ048-181000-
ELSEWHERE

CITY           SKY/WX    TMP DP  RH WIND       PRES   REMARKS
HARRISBURG PA  CLOUDY    77  74  90 CALM      29.84S
BALTIMORE      CLOUDY    74  74 100 CALM      29.85F
ANNAPOLIS      CLOUDY    78  78 100 S8        29.85F
ANDREWS AFB    MOCLDY    75  73  92 S8        29.86F
PHILADELPHIA   CLOUDY    76  69  79 SW6       29.88F
HENDERSON NC   MOCLDY    71  70  97 S6        29.92S FOG
GREENSBORO     PTCLDY    76  76 100 SW5       29.93S
ROCKY MOUNT    CLEAR     75  75 100 CALM      29.92F FOG
$$

VAZ100-181000-
MARINE

STATION/POSITION TIME  TEMP    WIND        PRES    WAVE   SWELL
                       AIR SEA DIR/SP/G            HT/PER HT/PER
                 (UTC) (F)     (DEG/KT/KT) (MB)    (FT/S) (FT/S)
BRANDYWINE LGT   0842   77     190/ 14/ 17 1012.8F
CAPE MAY NJ      0836   76 78  180/  8/ 13 1012.3S
LEWES DE         0842   77 76  200/  6/  8 1012.3F
15NM E FENWICK I 0850   78 77  180/ 16/ 19 1013.4F   3/ 3   2/ 8
OCEAN-CITY-INLET 0842   77 77  210/ 13/ 16 1013.5F
WACHAPREAGUE VA  0842   80 82  210/  9/ 14 1013.0F
THOMAS POINT MD  0900   78 80  180/ 16/ 18   N/A
GOOSES REEF MD   0900   79 79  190/ 12/ 14 1012.2    1/ 2
COVE POINT MD    0842   77     210/  8/ 12 1012.6F
SOLOMONS ISLAND  0842   78 81  200/  7/  9   N/A
BISHOPS HEAD MD  0842   80 81  190/ 13/ 16 1012.3F
PINEY POINT MD   0842          210/  8/ 10   N/A
POTOMAC MD       0900   79 81  200/ 12/ 16 1011.3    2/ 3
CAMBRIDGE MD     0842   79 81              1012.7F
LEWISETTA VA     0842   78 83  220/ 10/ 13 1011.8F
RAPPAHANNOCK LGT 0842          180/ 17/ 18 1013.3F
STINGRAY PT      0900   80 81  220/ 14/ 17 1012.8    2/ 3
YORK RVR RNG VA  0842   80     210/ 12/ 14 1013.1F
YORKTOWN VA      0842   79 81  200/  9/ 12 1012.3F
JAMESTOWN VA     0900      83  200/  8/ 10   N/A     0
DOMINION TERM VA 0842   79     200/ 10/ 12 1013.1S
KIPTOPEKE VA     0842      79  200/ 10/ 12   N/A
CHES BAY BRIDGE  0842   79 77  210/  9/ 12 1013.0S
CAPE HENRY VA    0842   78     190/  6/ 11   N/A
WILLOUBY STN VA  0842   79     190/ 12/ 14 1012.9F
S CRANEY ISL VA  0842   79     190/ 10/ 12 1012.8F
CAPE HENRY BUOY  0900      79                N/A     2/ 4
1ST LANDING BUOY 0900   79 79              1013.2    1/ 3
64NM E OF VA BCH 0850   78 78  190/  8/ 10 1014.7S   2/ 8   2/ 8
DUCK PIER NC     0842   81 72  180/ 12/ 15 1013.4F
44100 DUCK FRF   0805      79                N/A     2/ 7
44056 DUCK FRF   0900      78                N/A     2/ 6
OREGON INLET NC  0842   82 83  180/ 12/ 15 1014.1R
HATTERAS NC      0842   83 84  180/  9/ 12 1014.1R
DIAMOND SHLS NC  0850   84 85  190/ 17/ 19 1013.9S   2/ 3   2/ 8
CAPE LOOKOUT NC  0900   83     210/  8/ 11 1013.8R
$$




USA.gov is the U.S. government's official web portal to all federal, state and local government web resources and services.